Location: Albuquerque Trailhead
(34.7934°N, 106.3736°W)
Time: 13:35:15
(UTC+00:00)

Okean 3 Rocket - Pass Details

Date: 20 June 2021
Orbit: 616 x 644 km, 82.5° (Epoch: 31 July)

Event Time Altitude Azimuth Distance (km) Brightness Sun altitude
Exits shadow 09:39:33 55° 177° (S) 745 3.6 -21.5°
Maximum altitude 09:40:29 84° 97° (E) 626 3.5 -21.3°
Drops below altitude 10° 09:44:53 10° 8° (N) 1,983 7.0 -20.8°
Sets 09:47:06 0° 8° (N) 2,892 8.0 -20.5°
